Zurück zum Katalog

ICEYE-X74

AktivWissenschaftSSO
NORAD 68500·PAYLOAD·🇺🇸 United States

Gestartet Mar 30, 2026 von Vandenberg Space Force Base

Loading…

Nächste Überflüge (nächste 24 Stunden)

TLE

AktuellSource: Space-Track

Epoche: Sep 14, 2026, 07:58 UTC

1 68500U 26067CN  26257.33242164  .00001483  00000-0  15126-3 0  9991
2 68500  97.7712 214.2727 0003901  83.8362 276.3301 14.92157458 25018

Verfolge ICEYE-X74 in Echtzeit mit AllMySat

Download on the App Store